Home   Weather   Sheffield   Past weeks
Flag for United Kingdom

Past Weather in Sheffield, England, United Kingdom — Yesterday and Last 2 Weeks

Now
34 °F

Passing clouds.


Feels Like: 28 °F
Forecast: 40 / 33 °F
Wind: 7 mph from Southwest

Location: Manchester Airport

Current Time: Jan 22, 2019 at 6:18:52 am

Latest Report: Jan 22, 2019 at 5:20 am


Visibility: N/A

Pressure: 29.56 "Hg

Humidity: 87%

Dew Point: 30 °F

Location of SheffieldLocation

Past Weather in Sheffield — Graph

°F

Sheffield Temperature Yesterday

Maximum temperature yesterday: 41 °F (at 11:20 am)
Minimum temperature yesterday: 37 °F (at 9:50 am)
Average temperature yesterday: 40 °F

High & Low Weather Summary for the Past Weeks

 TemperatureHumidityPressure
High52 °F (Jan 7, 12:20 pm)100% (Jan 10, 3:50 pm)30.51 "Hg (Jan 10, 3:50 pm)
Low28 °F (Jan 9, 12:20 am)52% (Jan 17, 1:50 pm)29.53 "Hg (Jan 16, 8:20 am)
Average41 °F83%30.09 "Hg
* Reported Jan 7 5:20 am — Jan 22 5:20 am, Sheffield. Weather by CustomWeather, © 2019

Note: Actual official high and low records may vary slightly from our data, if they occured in-between our weather recording intervals... More about our weather records

Advertising

Sheffield Weather History for the Previous 24 Hours

Scroll right to see more
 ConditionsComfort  
Time TempWeatherWind HumidityBarometerVisibility
5:20 am
Tue, Jan 22
34 °FPassing clouds.7 mph87%29.56 "HgN/A
4:50 am34 °FMostly cloudy.6 mph93%29.56 "HgN/A
4:20 am34 °FRain. Mostly cloudy.8 mph93%29.56 "Hg3 mi
3:50 am34 °FPassing clouds.6 mph93%29.56 "HgN/A
3:20 am36 °FPartly cloudy.7 mph87%29.59 "HgN/A
2:50 am36 °FRain. Partly cloudy.7 mph93%29.59 "Hg3 mi
2:20 am34 °FPassing clouds.6 mph93%29.59 "HgN/A
1:50 am36 °FMostly cloudy.5 mph93%29.59 "HgN/A
1:20 am36 °FPartly cloudy.3 mph93%29.62 "HgN/A
12:50 am36 °FPassing clouds.6 mph93%29.62 "HgN/A
12:20 am36 °FLight rain. Mostly cloudy.8 mph93%29.62 "Hg5 mi
11:50 pm
Mon, Jan 21
37 °FLight rain. Overcast.10 mph87%29.65 "HgN/A
11:20 pm37 °FLight rain. Mostly cloudy.16 mph93%29.65 "Hg4 mi
10:50 pm41 °FLight rain. Overcast.10 mph87%29.62 "Hg4 mi
10:20 pm41 °FLight rain. Partly cloudy.10 mph81%29.62 "Hg4 mi
9:50 pm41 °FMostly cloudy.8 mph81%29.65 "HgN/A
9:20 pm41 °FLight rain. Overcast.8 mph81%29.68 "HgN/A
8:50 pm39 °FLight rain. Mostly cloudy.8 mph87%29.71 "HgN/A
8:20 pm41 °FQuite cool.8 mph76%29.77 "HgN/A
7:50 pm39 °FPassing clouds.7 mph81%29.77 "HgN/A
7:20 pm39 °FPassing clouds.8 mph81%29.80 "HgN/A
6:50 pm39 °FPassing clouds.8 mph81%29.83 "HgN/A
6:20 pm39 °FPartly cloudy.10 mph81%29.86 "HgN/A
5:50 pm41 °FPartly cloudy.7 mph76%29.89 "HgN/A
5:20 pm41 °FPassing clouds.8 mph81%29.92 "HgN/A
4:50 pm41 °FLight rain. Partly cloudy.6 mph81%29.92 "HgN/A
4:20 pm41 °FOvercast.6 mph81%29.95 "HgN/A
3:50 pm41 °FPartly sunny.9 mph81%29.98 "HgN/A
3:20 pm41 °FScattered clouds.8 mph81%29.98 "HgN/A
2:50 pm41 °FPartly sunny.7 mph81%30.01 "HgN/A
2:20 pm41 °FPartly sunny.8 mph76%30.04 "HgN/A
1:50 pm41 °FPartly sunny.9 mph76%30.04 "HgN/A
12:50 pm41 °FScattered clouds.8 mph81%30.09 "HgN/A
12:20 pm41 °FScattered clouds.8 mph81%30.09 "HgN/A
11:50 am41 °FPassing clouds.6 mph81%30.12 "HgN/A
11:20 am41 °FPartly sunny.6 mph81%30.15 "HgN/A
10:50 am39 °FPassing clouds.5 mph87%30.15 "Hg4 mi
10:20 am39 °FPassing clouds.3 mph87%30.18 "Hg4 mi
9:50 am37 °FPartly sunny.3 mph93%30.18 "Hg4 mi
9:20 am39 °FFog.5 mph93%30.18 "Hg2 mi
8:50 am39 °FFog.5 mph93%30.21 "Hg2 mi
8:20 am39 °FFog.5 mph93%30.21 "Hg1 mi
7:50 am39 °FFog.3 mph93%30.21 "Hg0 mi
7:20 am39 °FFog.2 mph93%30.21 "Hg2 mi
6:50 am39 °FFog.1 mph93%30.21 "Hg3 mi
6:20 am39 °FFog.No wind93%30.21 "Hg3 mi
Weather by CustomWeather, © 2019

See weather overview